Location: Unspecified
(0.0000°N, 0.0000°E)
Time: 04:57:08
(UTC+02:00)

Vanguard 1 - Visible Passes

Search period start: 30 July 2014 00:00
Search period end: 09 August 2014 00:00
Orbit: 650 x 3838 km, 34.2° (Epoch: 29 July)

Date Brightness Start Highest point End Pass type
(mag) Time Alt. Az. Time Alt. Az. Time Alt. Az.
30 Jul 12.6 04:43:15 12° E 04:43:15 12° E 04:43:37 10° E visible
30 Jul 10.5 06:56:01 23° W 06:58:53 35° NW 07:03:09 10° NNE visible
30 Jul 13.7 21:13:24 10° WSW 21:31:28 29° SSW 21:49:13 10° SSE visible
30 Jul 13.8 23:53:44 10° SW 00:01:59 15° SSW 00:01:59 15° SSW visible
31 Jul 11.9 05:03:47 23° E 05:03:47 23° E 05:05:40 10° ENE visible
31 Jul 11.2 07:16:33 12° W 07:20:14 19° NW 07:23:39 10° N visible
31 Jul 13.7 21:38:26 10° WSW 21:55:19 24° SSW 22:09:33 13° SSE visible
01 Aug 13.9 00:18:23 10° SSW 00:22:18 13° SSW 00:22:18 13° SSW visible
01 Aug 11.1 05:24:17 39° ENE 05:24:17 39° ENE 05:27:19 10° NE visible
01 Aug 13.7 22:03:59 10° WSW 22:19:32 21° SSW 22:29:50 15° SSE visible
02 Aug 14.0 00:41:48 10° SSW 00:42:36 11° SSW 00:42:36 11° SSW visible
02 Aug 10.6 05:44:47 48° N 05:44:47 48° N 05:48:38 10° NE visible
02 Aug 13.8 19:53:14 10° W 20:10:15 34° SSW 20:30:25 10° SSE visible
02 Aug 13.7 22:29:39 10° SW 22:44:01 19° S 22:50:07 17° S visible
03 Aug 10.9 06:05:16 35° NNW 06:05:16 35° NNW 06:09:36 10° NNE visible
03 Aug 13.9 20:17:22 10° WSW 20:33:56 28° SSW 20:52:27 10° SSE visible
03 Aug 13.7 22:54:48 10° SW 23:08:35 18° S 23:10:23 18° S visible
04 Aug 11.4 06:25:43 21° NW 06:25:59 21° NW 06:30:05 10° N visible
04 Aug 13.8 20:42:04 10° WSW 20:58:00 24° SSW 21:14:48 10° SSE visible
04 Aug 13.7 23:19:01 10° SW 23:30:39 19° S 23:30:39 19° S visible
05 Aug 12.6 04:33:23 13° NE 04:33:23 13° NE 04:33:55 10° NE visible
05 Aug 12.0 06:46:09 11° NW 06:47:23 12° NW 06:49:18 10° NNW visible
05 Aug 13.8 21:07:10 10° SW 21:22:26 21° S 21:37:39 10° SSE visible
05 Aug 13.7 23:42:17 10° SSW 23:50:55 19° S 23:50:55 19° S visible
06 Aug 12.2 04:53:48 19° NE 04:53:48 19° NE 04:55:10 10° NE visible
06 Aug 13.7 21:32:13 10° SW 21:47:07 20° S 21:58:25 13° SSE visible
07 Aug 13.8 00:04:53 10° SSW 00:11:10 18° SSW 00:11:10 18° SSW visible
07 Aug 12.0 05:14:11 21° NNE 05:14:11 21° NNE 05:16:07 10° NNE visible
07 Aug 13.6 21:56:44 10° SW 22:11:50 20° S 22:18:41 17° SSE visible
08 Aug 13.9 00:27:05 10° SW 00:31:27 17° SSW 00:31:27 17° SSW visible
08 Aug 12.0 05:34:32 18° N 05:34:32 18° N 05:36:40 10° N visible
08 Aug 13.5 22:20:27 10° SW 22:36:22 21° S 22:38:59 21° SSE visible
